{"data":{"norad_id":47752,"intl_designator":"2021-017AG","name":"STARLINK-2169","alt_names":[],"object_type":"PAYLOAD","status":"ACTIVE","operator":null,"country":"US","launch_date":"2021-03-04","launch_site_code":"AFETR","launch_vehicle":null,"mission":null,"orbit_class":"UNKNOWN","rcs_meters":null,"size_class":null,"mass_kg":null,"dimensions":null,"purposes":["comms"],"wikipedia_slug":null,"has_3d_model":false,"image_url":null,"decayed_at":null,"tle_current":{"epoch":"2026-05-25T04:16:49.996416Z","epoch_age_seconds":58931,"freshness":"FRESH","line1":"1 47752U 21017AG  26145.17835644  .00081832  00000+0  11004-2 0  9991","line2":"2 47752  53.1548 199.2096 0005702  10.3482 349.7647 15.57188041289730","mean_motion":15.57188041,"eccentricity":0.0005702,"inclination_deg":53.1548,"raan_deg":199.2096,"arg_perigee_deg":10.3482,"mean_anomaly_deg":349.7647,"bstar":0.0011004,"rev_number":28973,"period_min":92.474380876651,"perigee_km":391.93721425491,"apogee_km":399.66221168238,"semimajor_km":6773.9367129686,"source":"CELESTRAK","updated_at":"2026-05-25T13:38:16.568275Z"}}}